Voltar ao catálogo

STARLINK-37061

AtivoComunicaçõesVLEO
NORAD 68185·PAYLOAD·🇺🇸 United States

Lançado Mar 14, 2026 de Vandenberg Space Force Base

Loading…

Próximas Passagens (próximas 24 horas)

TLE

AtualizadoSource: CelesTrak SupGP

Época: Sep 15, 2026, 03:26 UTC

1 68185C 26050U   26258.14354167 -.00008497  00000+0 -25121-3 0  2586
2 68185  53.1577 102.4407 0001254  89.0392 146.6206 15.34373374    15

Acompanhe STARLINK-37061 em tempo real com AllMySat

Download on the App Store